Погода в Макарове

Украина / Киевская область     50˚28′01″N   29˚48′53″E
темп.,
°C
ветер,
м/с
пор.,
м/с
влажн.,
%
обл.,
%
осадки,
мм/ч
давл.,
гПа
погр.,
м
6 декабря, вс
вс623:00−2˚юв6138971 0.0 1031461
02:00−2˚юв6138335 0.0 1032390
05:00−3˚юв613730 0.0 1032386
08:00−4˚юв613720 0.0 1033389
11:00−2˚юв612630 0.0 1033458
14:00−1˚вюв611630 0.0 1032471
17:00−4˚вюв613680 0.0 1032410
20:00−4˚вюв613700 0.0 1033472
7 декабря, пн
пн723:00−4˚вюв613760 0.0 1033488
02:00−5˚вюв612770 0.0 1033508
05:00−6˚вюв612810 0.0 1032492
08:00−7˚вюв612810 0.0 1032500
11:00−5˚вюв712690 0.0 1031492
14:00−4˚вюв712630 0.0 1030555
17:00−5˚вюв713731 0.0 1030619
20:00−5˚вюв6146815 0.0 1030561
8 декабря, вт
вт823:00−4˚вюв7126398 0.0 1029626
02:00−6˚вюв6127176 0.0 1029508
05:00−6˚вюв612730 0.0 1029469
08:00−7˚вюв612780 0.0 1029476
11:00−5˚вюв610698 0.0 1028566
14:00−4˚вюв6107037 0.0 1028749
17:00−5˚вюв51180100 0.0 1028681
20:00−5˚вюв4108397 0.0 1028469
9 декабря, ср
ср923:00−4˚вюв5107393 0.0 1028402
02:00−6˚в497259 0.0 1028302
05:00−6˚в49710 0.0 1028344
08:00−6˚в410760 0.0 1028395
11:00−5˚вюв587029 0.0 1028489
14:00−4˚вюв586941 0.0 1026499
17:00−4˚вюв61087100 0.2 1026475
20:00−3˚вюв61188100 0.5 1026461
10 декабря, чт
чт1023:00−2˚вюв5108797 0.0 1026447
02:00−2˚вюв6128895 0.0 1026467
05:00−2˚вюв61188100 0.1 1025411
08:00−1˚вюв71392100 0.1 1024459
11:00+1˚вюв71291100 0.0 1025571
14:00+1˚вюв71390100 0.0 1024454
17:00+1˚вюв71493100 0.0 1024476
20:00+1˚юв81491100 0.1 1024504